User: anonymous   Login
Location: Coffee Ditch
(40.9640°N, 122.7500°W)
Time: 11:52:53
(UTC+00:00)
Language:

Cosmos 1606 Rocket - Orbit

View from above orbital plane
View from above orbital plane
View from above satellite
View from above satellite

Ground track
Ground track

The orbit data is extracted from the following two-line orbital elements,

1 15370U 84111B   25318.53611247  .00000917  00000-0  10206-3 0  9998
2 15370  82.5173   4.8447 0019970 358.6165   1.4993 14.85914112198775
Epoch (UTC): 14 November 2025 12:52:00
Eccentricity: 0.0019970
inclination: 82.5173°
perigee height: 597 km
apogee height: 624 km
right ascension of ascending node: 4.8447°
argument of perigee: 358.6165°
revolutions per day: 14.85914112
mean anomaly at epoch: 1.4993°
orbit number at epoch: 19877

The dashed part of the orbit path shows where the satellite is in the earth's shadow,  

DLR